CPA369 VHHH-ZJHK

Flight info

Callsign CPA369
Flight time 1h 4m
Altitude 38000
Route PECAN V10 SIKOU A202 ISBIG
Aircraft A343/H-SDE2E3FGHIJ4J5M1RWXY/LB1D1

Departure

Time 2026-04-21 13:43
Airport Hong Kong International Airport (VHHH)

Arrival

Time 2026-04-21 14:48
Airport Haikou Meilan International Airport (ZJHK)
Time Latitude Longitude Altitude Speed Heading
2026-04-21 13:18 22.31263 113.92842 31 ft 0 kts 341°
2026-04-21 13:30 22.31246 113.92848 32 ft 4 kts 341°
2026-04-21 13:30 22.31220 113.92857 31 ft 4 kts 341°
2026-04-21 13:30 22.31196 113.92866 30 ft 4 kts 341°
2026-04-21 13:31 22.31176 113.92877 32 ft 4 kts 301°
2026-04-21 13:31 22.31174 113.92902 32 ft 4 kts 248°
2026-04-21 13:31 22.31182 113.92922 32 ft 4 kts 245°
2026-04-21 13:31 22.31187 113.92934 29 ft 0 kts 245°
2026-04-21 13:34 22.31184 113.92927 31 ft 4 kts 245°
2026-04-21 13:34 22.31181 113.92921 32 ft 0 kts 245°
2026-04-21 13:35 22.31177 113.92911 32 ft 4 kts 244°
2026-04-21 13:35 22.31157 113.92883 31 ft 6 kts 211°
2026-04-21 13:35 22.31095 113.92850 32 ft 15 kts 205°
2026-04-21 13:36 22.31016 113.92809 32 ft 15 kts 205°
2026-04-21 13:36 22.30922 113.92760 32 ft 16 kts 205°
2026-04-21 13:36 22.30825 113.92694 31 ft 17 kts 238°
2026-04-21 13:36 22.30785 113.92575 32 ft 19 kts 252°
2026-04-21 13:37 22.30740 113.92421 32 ft 24 kts 252°
2026-04-21 13:37 22.30682 113.92233 32 ft 29 kts 251°
2026-04-21 13:37 22.30616 113.92028 32 ft 29 kts 251°
2026-04-21 13:37 22.30554 113.91833 32 ft 28 kts 251°
2026-04-21 13:38 22.30488 113.91633 32 ft 28 kts 250°
2026-04-21 13:38 22.30425 113.91441 32 ft 28 kts 250°
2026-04-21 13:38 22.30364 113.91244 32 ft 28 kts 252°
2026-04-21 13:38 22.30300 113.91048 32 ft 27 kts 251°
2026-04-21 13:39 22.30238 113.90855 32 ft 27 kts 251°
2026-04-21 13:39 22.30175 113.90661 32 ft 27 kts 251°
2026-04-21 13:39 22.30114 113.90468 32 ft 27 kts 250°
2026-04-21 13:39 22.30051 113.90278 32 ft 27 kts 251°
2026-04-21 13:40 22.29990 113.90087 32 ft 27 kts 251°
2026-04-21 13:40 22.29929 113.89897 32 ft 27 kts 251°
2026-04-21 13:40 22.29880 113.89757 32 ft 15 kts 236°
2026-04-21 13:40 22.29805 113.89741 32 ft 11 kts 167°
2026-04-21 13:41 22.29729 113.89769 32 ft 12 kts 161°
2026-04-21 13:41 22.29646 113.89802 30 ft 9 kts 151°
2026-04-21 13:41 22.29638 113.89859 30 ft 8 kts 73°
2026-04-21 13:41 22.29642 113.89870 30 ft 0 kts 71°
2026-04-21 13:42 22.29642 113.89873 30 ft 2 kts 71°
2026-04-21 13:42 22.29700 113.90058 30 ft 67 kts 71°
2026-04-21 13:42 22.29928 113.90754 32 ft 137 kts 69°
2026-04-21 13:43 22.30200 113.91625 36 ft 181 kts 73°
2026-04-21 13:43 22.30496 113.92579 422 ft 189 kts 72°
2026-04-21 13:43 22.30754 113.93330 819 ft 181 kts 73°
2026-04-21 13:43 22.31142 113.94530 1149 ft 187 kts 73°
2026-04-21 13:44 22.31571 113.95865 1675 ft 190 kts 74°
2026-04-21 13:44 22.32021 113.97277 1927 ft 209 kts 75°
2026-04-21 13:44 22.32515 113.98826 2214 ft 224 kts 75°
2026-04-21 13:44 22.32982 114.00460 2600 ft 235 kts 87°
2026-04-21 13:45 22.32810 114.02248 2829 ft 249 kts 117°
2026-04-21 13:45 22.31756 114.03723 3297 ft 250 kts 148°
2026-04-21 13:45 22.30148 114.04390 3935 ft 250 kts 177°
2026-04-21 13:45 22.28429 114.04186 4571 ft 251 kts 191°
2026-04-21 13:46 22.26699 114.03811 5212 ft 254 kts 192°
2026-04-21 13:46 22.24950 114.03428 5804 ft 259 kts 192°
2026-04-21 13:46 22.23172 114.03038 6422 ft 262 kts 193°
2026-04-21 13:46 22.21370 114.02646 7000 ft 266 kts 193°
2026-04-21 13:47 22.19538 114.02250 7555 ft 270 kts 193°
2026-04-21 13:47 22.17688 114.01852 8142 ft 273 kts 193°
2026-04-21 13:47 22.15807 114.01448 8722 ft 277 kts 193°
2026-04-21 13:47 22.13909 114.01039 9289 ft 280 kts 193°
2026-04-21 13:48 22.11981 114.00626 9863 ft 284 kts 194°
2026-04-21 13:48 22.10048 114.00212 10246 ft 294 kts 194°
2026-04-21 13:48 22.07980 113.99766 10362 ft 312 kts 194°
2026-04-21 13:48 22.05783 113.99290 10489 ft 330 kts 194°
2026-04-21 13:49 22.03479 113.98792 10600 ft 346 kts 194°
2026-04-21 13:49 22.01069 113.98272 10731 ft 361 kts 193°
2026-04-21 13:49 21.98559 113.97732 10846 ft 374 kts 193°
2026-04-21 13:49 21.95968 113.97176 10967 ft 386 kts 193°
2026-04-21 13:50 21.93296 113.96605 11187 ft 394 kts 193°
2026-04-21 13:50 21.90592 113.96032 11547 ft 398 kts 193°
2026-04-21 13:50 21.87860 113.95454 11931 ft 401 kts 193°
2026-04-21 13:50 21.85121 113.94872 12304 ft 403 kts 193°
2026-04-21 13:51 21.82353 113.94281 12682 ft 406 kts 193°
2026-04-21 13:51 21.79578 113.93686 13067 ft 408 kts 194°
2026-04-21 13:51 21.76795 113.93089 13452 ft 410 kts 194°
2026-04-21 13:51 21.73984 113.92486 13823 ft 413 kts 194°
2026-04-21 13:52 21.71149 113.91878 14147 ft 415 kts 194°
2026-04-21 13:52 21.68306 113.91273 14442 ft 418 kts 194°
2026-04-21 13:52 21.65474 113.90671 14738 ft 421 kts 194°
2026-04-21 13:52 21.62599 113.90060 15049 ft 423 kts 194°
2026-04-21 13:53 21.59701 113.89445 15319 ft 426 kts 193°
2026-04-21 13:53 21.56777 113.88824 15601 ft 429 kts 193°
2026-04-21 13:53 21.53834 113.88199 15882 ft 432 kts 193°
2026-04-21 13:53 21.50873 113.87568 16155 ft 435 kts 194°
2026-04-21 13:54 21.47905 113.86934 16444 ft 437 kts 194°
2026-04-21 13:54 21.44912 113.86294 16730 ft 440 kts 194°
2026-04-21 13:54 21.41899 113.85649 17009 ft 442 kts 194°
2026-04-21 13:54 21.38870 113.85003 17285 ft 445 kts 194°
2026-04-21 13:55 21.35823 113.84354 17559 ft 447 kts 194°
2026-04-21 13:55 21.32751 113.83703 17826 ft 450 kts 194°
2026-04-21 13:55 21.29758 113.82770 18036 ft 448 kts 206°
2026-04-21 13:55 21.27102 113.81054 18265 ft 446 kts 221°
2026-04-21 13:56 21.24982 113.78654 18468 ft 443 kts 237°
2026-04-21 13:56 21.23507 113.75762 18667 ft 442 kts 247°
2026-04-21 13:56 21.22238 113.72746 18897 ft 444 kts 247°
2026-04-21 13:56 21.20972 113.69724 19122 ft 445 kts 247°
2026-04-21 13:57 21.19702 113.66697 19313 ft 447 kts 247°
2026-04-21 13:57 21.18424 113.63652 19533 ft 449 kts 247°
2026-04-21 13:57 21.17136 113.60592 19743 ft 451 kts 247°
2026-04-21 13:57 21.15844 113.57528 19928 ft 452 kts 247°
2026-04-21 13:58 21.14545 113.54447 20130 ft 454 kts 247°
2026-04-21 13:58 21.13241 113.51363 20327 ft 456 kts 247°
2026-04-21 13:58 21.11931 113.48267 20516 ft 457 kts 247°
2026-04-21 13:58 21.10627 113.45185 20634 ft 461 kts 247°
2026-04-21 13:59 21.09277 113.42008 20758 ft 464 kts 247°
2026-04-21 13:59 21.07953 113.38893 20897 ft 466 kts 247°
2026-04-21 13:59 21.06608 113.35723 21070 ft 468 kts 247°
2026-04-21 13:59 21.05263 113.32545 21262 ft 469 kts 247°
2026-04-21 14:00 21.03917 113.29371 21513 ft 469 kts 247°
2026-04-21 14:00 21.02567 113.26195 21773 ft 468 kts 247°
2026-04-21 14:00 21.01217 113.23020 21945 ft 470 kts 247°
2026-04-21 14:00 20.99857 113.19823 22080 ft 473 kts 247°
2026-04-21 14:01 20.98490 113.16616 22200 ft 475 kts 246°
2026-04-21 14:01 20.97560 113.14435 22284 ft 476 kts 247°
2026-04-21 14:01 20.95737 113.10163 22456 ft 478 kts 246°
2026-04-21 14:01 20.94358 113.06929 22598 ft 478 kts 246°
2026-04-21 14:02 20.93445 113.04785 22681 ft 478 kts 246°
2026-04-21 14:02 20.91597 113.00448 22844 ft 479 kts 246°
2026-04-21 14:02 20.90679 112.98294 22935 ft 479 kts 246°
2026-04-21 14:03 20.87908 112.91794 23192 ft 480 kts 246°
2026-04-21 14:03 20.86520 112.88544 23321 ft 480 kts 246°
2026-04-21 14:03 20.85131 112.85298 23476 ft 480 kts 246°
2026-04-21 14:03 20.83742 112.82057 23520 ft 482 kts 246°
2026-04-21 14:04 20.82340 112.78788 23526 ft 485 kts 246°
2026-04-21 14:04 20.80475 112.74444 23525 ft 484 kts 246°
2026-04-21 14:04 20.79545 112.72280 23526 ft 484 kts 246°
2026-04-21 14:04 20.78138 112.69006 23520 ft 484 kts 246°
2026-04-21 14:05 20.76731 112.65739 23520 ft 484 kts 246°
2026-04-21 14:05 20.75326 112.62470 23521 ft 485 kts 246°
2026-04-21 14:05 20.73916 112.59188 23520 ft 487 kts 246°
2026-04-21 14:05 20.72498 112.55893 23517 ft 488 kts 246°
2026-04-21 14:06 20.71077 112.52598 23518 ft 489 kts 246°
2026-04-21 14:06 20.69649 112.49293 23516 ft 489 kts 246°
2026-04-21 14:06 20.68224 112.45998 23515 ft 490 kts 246°
2026-04-21 14:06 20.66796 112.42684 23517 ft 490 kts 246°
2026-04-21 14:07 20.65374 112.39382 23520 ft 490 kts 246°
2026-04-21 14:07 20.63967 112.36124 23524 ft 489 kts 246°
2026-04-21 14:07 20.62542 112.32827 23524 ft 489 kts 246°
2026-04-21 14:07 20.61115 112.29529 23535 ft 489 kts 246°
2026-04-21 14:08 20.59686 112.26237 23521 ft 489 kts 246°
2026-04-21 14:08 20.58274 112.22936 23519 ft 488 kts 248°
2026-04-21 14:08 20.57267 112.19485 23514 ft 487 kts 259°
2026-04-21 14:08 20.56877 112.15900 23515 ft 486 kts 269°
2026-04-21 14:09 20.57107 112.12318 23514 ft 485 kts 279°
2026-04-21 14:09 20.57959 112.08829 23514 ft 485 kts 290°
2026-04-21 14:09 20.59351 112.05547 23512 ft 486 kts 295°
2026-04-21 14:09 20.60828 112.02313 23510 ft 486 kts 295°
2026-04-21 14:10 20.62299 111.99068 23511 ft 485 kts 295°
2026-04-21 14:10 20.63764 111.95816 23509 ft 485 kts 295°
2026-04-21 14:10 20.65203 111.92612 23502 ft 485 kts 295°
2026-04-21 14:10 20.66663 111.89360 23499 ft 485 kts 295°
2026-04-21 14:11 20.68126 111.86106 23500 ft 485 kts 295°
2026-04-21 14:11 20.69584 111.82865 23499 ft 485 kts 295°
2026-04-21 14:11 20.71048 111.79617 23501 ft 485 kts 295°
2026-04-21 14:11 20.72514 111.76359 23498 ft 485 kts 295°
2026-04-21 14:12 20.73978 111.73102 23501 ft 485 kts 295°
2026-04-21 14:12 20.75433 111.69865 23499 ft 485 kts 295°
2026-04-21 14:12 20.76895 111.66609 23498 ft 485 kts 295°
2026-04-21 14:12 20.78353 111.63360 23498 ft 485 kts 295°
2026-04-21 14:13 20.79805 111.60119 23497 ft 485 kts 295°
2026-04-21 14:13 20.81244 111.56871 23496 ft 484 kts 292°
2026-04-21 14:13 20.82309 111.53458 23492 ft 484 kts 282°
2026-04-21 14:13 20.82777 111.49894 23491 ft 483 kts 272°
2026-04-21 14:14 20.82638 111.46307 23490 ft 483 kts 262°
2026-04-21 14:14 20.81910 111.42813 23489 ft 484 kts 252°
2026-04-21 14:14 20.80801 111.39460 23485 ft 484 kts 251°
2026-04-21 14:14 20.79661 111.36068 23185 ft 486 kts 251°
2026-04-21 14:15 20.78526 111.32679 22851 ft 484 kts 251°
2026-04-21 14:15 20.77392 111.29293 22591 ft 482 kts 251°
2026-04-21 14:15 20.76273 111.25959 22342 ft 472 kts 251°
2026-04-21 14:15 20.75174 111.22678 22091 ft 467 kts 251°
2026-04-21 14:16 20.74082 111.19426 21843 ft 465 kts 251°
2026-04-21 14:16 20.72987 111.16184 21597 ft 463 kts 251°
2026-04-21 14:16 20.71894 111.12958 21344 ft 461 kts 251°
2026-04-21 14:16 20.70808 111.09749 21104 ft 458 kts 251°
2026-04-21 14:17 20.69727 111.06547 20858 ft 456 kts 251°
2026-04-21 14:17 20.68653 111.03365 20624 ft 455 kts 251°
2026-04-21 14:17 20.67581 111.00186 20383 ft 454 kts 251°
2026-04-21 14:17 20.66461 110.97087 20156 ft 453 kts 246°
2026-04-21 14:18 20.64896 110.94161 19920 ft 453 kts 237°
2026-04-21 14:18 20.62882 110.91573 19698 ft 455 kts 226°
2026-04-21 14:18 20.60474 110.89395 19458 ft 450 kts 217°
2026-04-21 14:18 20.57825 110.87727 19228 ft 434 kts 208°
2026-04-21 14:19 20.55112 110.86439 18992 ft 419 kts 206°
2026-04-21 14:19 20.52483 110.85232 18769 ft 406 kts 204°
2026-04-21 14:19 20.49829 110.84334 18538 ft 394 kts 196°
2026-04-21 14:19 20.47202 110.83818 18302 ft 376 kts 190°
2026-04-21 14:20 20.44613 110.83589 18102 ft 371 kts 186°
2026-04-21 14:20 20.42047 110.83388 17833 ft 368 kts 187°
2026-04-21 14:20 20.39492 110.83186 17574 ft 367 kts 187°
2026-04-21 14:20 20.36955 110.82982 17323 ft 365 kts 187°
2026-04-21 14:21 20.34428 110.82775 17076 ft 363 kts 187°
2026-04-21 14:21 20.31911 110.82576 16827 ft 361 kts 187°
2026-04-21 14:21 20.29418 110.82382 16581 ft 359 kts 187°
2026-04-21 14:21 20.26931 110.82187 16336 ft 357 kts 187°
2026-04-21 14:22 20.24496 110.81996 16097 ft 355 kts 187°
2026-04-21 14:22 20.22033 110.81803 15855 ft 353 kts 187°
2026-04-21 14:22 20.19586 110.81614 15616 ft 351 kts 187°
2026-04-21 14:22 20.17145 110.81424 15370 ft 350 kts 187°
2026-04-21 14:23 20.14723 110.81230 15129 ft 348 kts 187°
2026-04-21 14:23 20.12291 110.81038 14907 ft 358 kts 186°
2026-04-21 14:23 20.09739 110.80821 14672 ft 370 kts 191°
2026-04-21 14:23 20.07373 110.80060 14438 ft 344 kts 209°
2026-04-21 14:24 20.05437 110.78662 14212 ft 333 kts 226°
2026-04-21 14:24 20.03822 110.76919 13990 ft 330 kts 228°
2026-04-21 14:24 20.02226 110.75171 13763 ft 327 kts 228°
2026-04-21 14:24 20.00641 110.73438 13507 ft 326 kts 228°
2026-04-21 14:25 19.99064 110.71718 13253 ft 324 kts 227°
2026-04-21 14:25 19.97486 110.70001 12999 ft 323 kts 227°
2026-04-21 14:25 19.95918 110.68296 12752 ft 322 kts 227°
2026-04-21 14:25 19.94357 110.66597 12502 ft 321 kts 227°
2026-04-21 14:26 19.92803 110.64904 12256 ft 319 kts 227°
2026-04-21 14:26 19.91254 110.63214 12010 ft 318 kts 227°
2026-04-21 14:26 19.89717 110.61537 11773 ft 316 kts 227°
2026-04-21 14:26 19.88262 110.59830 11529 ft 316 kts 233°
2026-04-21 14:27 19.87038 110.57921 11293 ft 315 kts 240°
2026-04-21 14:27 19.86081 110.55839 11057 ft 313 kts 248°
2026-04-21 14:27 19.85414 110.53641 10822 ft 313 kts 256°
2026-04-21 14:27 19.85045 110.51362 10597 ft 312 kts 264°
2026-04-21 14:28 19.84972 110.49038 10354 ft 313 kts 269°
2026-04-21 14:28 19.84974 110.46734 10127 ft 310 kts 269°
2026-04-21 14:28 19.84970 110.44491 9922 ft 304 kts 268°
2026-04-21 14:28 19.84963 110.42294 9805 ft 291 kts 268°
2026-04-21 14:29 19.84954 110.40170 9690 ft 286 kts 268°
2026-04-21 14:29 19.84944 110.38026 9556 ft 286 kts 268°
2026-04-21 14:29 19.84937 110.35943 9429 ft 286 kts 269°
2026-04-21 14:29 19.84930 110.33828 9303 ft 285 kts 268°
2026-04-21 14:30 19.84923 110.31725 9177 ft 285 kts 268°
2026-04-21 14:30 19.84915 110.29617 8856 ft 287 kts 268°
2026-04-21 14:30 19.84908 110.27514 8368 ft 281 kts 268°
2026-04-21 14:30 19.84902 110.25446 7881 ft 279 kts 268°
2026-04-21 14:31 19.84896 110.23385 7404 ft 278 kts 268°
2026-04-21 14:31 19.84908 110.21345 6934 ft 275 kts 272°
2026-04-21 14:31 19.85471 110.19427 6474 ft 275 kts 300°
2026-04-21 14:31 19.86815 110.18001 6004 ft 276 kts 328°
2026-04-21 14:32 19.88630 110.17397 5513 ft 276 kts 357°
2026-04-21 14:32 19.90486 110.17717 4949 ft 277 kts 23°
2026-04-21 14:32 19.92072 110.18847 4464 ft 271 kts 50°
2026-04-21 14:32 19.93055 110.20475 4184 ft 255 kts 72°
2026-04-21 14:33 19.93387 110.22256 3923 ft 238 kts 93°
2026-04-21 14:33 19.93393 110.23975 3616 ft 228 kts 93°
2026-04-21 14:33 19.93401 110.25653 3335 ft 227 kts 93°
2026-04-21 14:33 19.93408 110.27326 3057 ft 225 kts 94°
2026-04-21 14:34 19.93415 110.28988 2767 ft 225 kts 93°
2026-04-21 14:34 19.93422 110.30662 2477 ft 226 kts 94°
2026-04-21 14:34 19.93429 110.32327 2193 ft 223 kts 95°
2026-04-21 14:34 19.93437 110.33926 1917 ft 207 kts 95°
2026-04-21 14:35 19.93446 110.35370 1684 ft 187 kts 97°
2026-04-21 14:35 19.93452 110.36670 1425 ft 167 kts 97°
2026-04-21 14:35 19.93456 110.37782 1238 ft 154 kts 97°
2026-04-21 14:35 19.93457 110.38905 1037 ft 151 kts 96°
2026-04-21 14:36 19.93453 110.40005 872 ft 147 kts 94°
2026-04-21 14:36 19.93476 110.41098 719 ft 148 kts 94°
2026-04-21 14:36 19.93474 110.42190 564 ft 149 kts 91°
2026-04-21 14:36 19.93472 110.43309 303 ft 151 kts 91°
2026-04-21 14:37 19.93479 110.44415 100 ft 148 kts 91°
2026-04-21 14:37 19.93469 110.45480 457 ft 150 kts 94°
2026-04-21 14:37 19.93432 110.46659 1097 ft 171 kts 97°
2026-04-21 14:37 19.93404 110.47938 1764 ft 172 kts 101°
2026-04-21 14:38 19.93410 110.49239 2120 ft 185 kts 98°
2026-04-21 14:38 19.93361 110.50683 2341 ft 205 kts 99°
2026-04-21 14:38 19.93034 110.52190 2464 ft 215 kts 126°
2026-04-21 14:38 19.91933 110.53269 2693 ft 220 kts 159°
2026-04-21 14:39 19.90417 110.53505 2972 ft 223 kts 190°
2026-04-21 14:39 19.89044 110.52842 3000 ft 219 kts 221°
2026-04-21 14:39 19.88125 110.51547 3006 ft 221 kts 235°
2026-04-21 14:39 19.87362 110.50147 3007 ft 223 kts 237°
2026-04-21 14:40 19.86603 110.48705 3006 ft 224 kts 238°
2026-04-21 14:40 19.85993 110.47181 3007 ft 227 kts 257°
2026-04-21 14:40 19.85898 110.45489 3010 ft 230 kts 266°
2026-04-21 14:40 19.85899 110.43787 3007 ft 230 kts 267°
2026-04-21 14:41 19.85907 110.42079 3008 ft 231 kts 268°
2026-04-21 14:41 19.85907 110.40373 3007 ft 230 kts 267°
2026-04-21 14:41 19.85920 110.38693 3006 ft 231 kts 267°
2026-04-21 14:41 19.85936 110.36983 3005 ft 232 kts 267°
2026-04-21 14:42 19.85953 110.35266 3003 ft 232 kts 267°
2026-04-21 14:42 19.85974 110.33540 2864 ft 232 kts 267°
2026-04-21 14:42 19.86005 110.31831 2626 ft 229 kts 268°
2026-04-21 14:42 19.86039 110.30144 2386 ft 228 kts 267°
2026-04-21 14:43 19.86289 110.28483 2125 ft 233 kts 289°
2026-04-21 14:43 19.87316 110.27179 1995 ft 231 kts 324°
2026-04-21 14:43 19.88800 110.26678 2002 ft 221 kts 352°
2026-04-21 14:43 19.90318 110.26603 2013 ft 217 kts
2026-04-21 14:44 19.91704 110.27146 2003 ft 213 kts 38°
2026-04-21 14:44 19.92725 110.28240 2014 ft 206 kts 61°
2026-04-21 14:44 19.93298 110.29573 2005 ft 198 kts 82°
2026-04-21 14:44 19.93425 110.30951 2022 ft 173 kts 96°
2026-04-21 14:45 19.93431 110.32177 2001 ft 161 kts 97°
2026-04-21 14:45 19.93435 110.33359 1933 ft 157 kts 97°
2026-04-21 14:45 19.93439 110.34517 1784 ft 156 kts 99°
2026-04-21 14:45 19.93443 110.35659 1604 ft 153 kts 98°
2026-04-21 14:46 19.93447 110.36773 1413 ft 149 kts 98°
2026-04-21 14:46 19.93451 110.37872 1224 ft 148 kts 96°
2026-04-21 14:46 19.93454 110.38969 1036 ft 149 kts 96°
2026-04-21 14:46 19.93455 110.40049 860 ft 148 kts 95°
2026-04-21 14:47 19.93475 110.41146 667 ft 146 kts 95°
2026-04-21 14:47 19.93472 110.42236 523 ft 152 kts 92°
2026-04-21 14:47 19.93481 110.43354 293 ft 149 kts 94°
2026-04-21 14:47 19.93474 110.44453 85 ft 145 kts 91°
2026-04-21 14:48 19.93453 110.45360 84 ft 98 kts 88°
2026-04-21 14:48 19.93480 110.45912 81 ft 45 kts 88°
2026-04-21 14:48 19.93544 110.46133 79 ft 31 kts 61°
2026-04-21 14:48 19.93620 110.46283 71 ft 20 kts 63°
2026-04-21 14:49 19.93670 110.46368 74 ft 11 kts 38°
2026-04-21 14:49 19.93738 110.46346 68 ft 11 kts 308°